FLOCK 2P-10 (41612 NORAD) Tracking and Keplerian Element Data

This shows tracking and keplerian element data for the satellite.

Feedback or suggestion? Click here.




ElementValue
Catalog41612
NameFLOCK 2P-10
Epoch Orbit9165
Epoch Day46.16197735
Epoch Year2018
RAAN112.1069
Inclination97.4322
Eccentricity0.0009187
Argument of Perigee317.4327
Mean Anonmoly42.6197
Mean Motion15.23950425
Decay Rate4.48E-05
L11 41612U 16040P 18046.16197735 .00004480 00000-0 18803-3 0 9992
L22 41612 97.4322 112.1069 0009187 317.4327 42.6197 15.23950425 91651

Live tracking and technical data element details for FLOCK 2P-10 (NORAD 41612). FLOCK 2P-10 can be tracked NOW for your location showing map with azimuth and elevation plus other details from your city location.

Track the satellite on the map from your city or location and see movement details for azimuth, elevation, latitude, longitude, range, height, and movement on the map or in text.







IsCatalogInMostPopularTable: catalog: 41612, numindb: 124
Update: records affected: 1



GetName: 41612 FLOCK 2P-10

Hit Count: updated at: Mon, 19 Nov 2018 12:02:35 GMT